Regional Weather Roundup
Issued by NWS

Home | Current Version | Previous Version | Text Only | Print | Product List | Glossary On
Versions: 1 2 3 4 5 6 7 8 9 10 11 12 13 14 15 16 17 18 19 20 21 22 23 24 25 26 27 28 29 30 31 32 33 34 35 36 37 38 39 40 41 42 43 44 45 46 47 48 49 50
000
ASHW40 PHFO 231543
RWRHI

WEATHER ROUNDUP FOR HAWAII
NATIONAL WEATHER SERVICE HONOLULU HI
500 AM HST THU OCT 23 2014

THIS IS AN AUTOMATED REPORT THAT HAS NOT BEEN QUALITY CONTROLLED.

NOTE..."FAIR" INDICATES FEW OR NO CLOUDS BELOW 12,000 FEET WITH NO
SIGNIFICANT WEATHER AND/OR OBSTRUCTIONS TO VISIBILITY.

* - THESE SITES REPORT LIMITED FIELDS

HIZ001>004-231600-
KAUAI-NIIHAU-

CITY           SKY/WX    TMP DP  RH WIND       PRES   REMARKS
LIHUE APT      MOCLDY    78  72  81 E6        29.99S
PORT ALLEN*      N/A     75 N/A N/A NE6         N/A
POIPU*           N/A     77 N/A N/A N2          N/A
PRINCEVILLE*     N/A     75 N/A N/A MISG        N/A
KOKOLE POINT*  NOT AVBL
MOLOAA DAIRY*  NOT AVBL
WAIMEA HTS*      N/A     73  70  88 N3          N/A
PUU OPAE*        N/A     70  66  88 CALM        N/A
PUU LUA*       NOT AVBL
MAKAHA RIDGE*  NOT AVBL
$$

HIZ005>011-231600-
OAHU-

CITY           SKY/WX    TMP DP  RH WIND       PRES   REMARKS
HONOLULU       PTCLDY    75  73  93 N5        29.98S
KALAELOA       MOCLDY    74  71  91 CALM      30.00R
KANEOHE MCB    CLOUDY    79  71  76 E6        29.99R
WHEELER FIELD  PTCLDY    71  69  95 NW2       30.01R
BELLOWS*         N/A    N/A N/A N/A E12         N/A
KAHUKU*          N/A    N/A N/A N/A SE1         N/A
WHEELER*       NOT AVBL
WAIANAE HARBOR NOT AVBL
DILLINGHAM*      N/A     73  72  94 E2          N/A
KAHUKU TRN*      N/A     72  70  94 SE3G12      N/A
KAWAILOA*        N/A     72  70  94 E2          N/A
KII*             N/A     79  73  83 E10G18      N/A
MAKUA RANGE*     N/A     75  70  83 E6          N/A
OAHU FOREST NW   N/A     68  68 100 N12G26      N/A
SCHOFIELD BRK*   N/A     75  75 100 MISG        N/A
SCHOFIELD S*   NOT AVBL
WAIANAE VLY*     N/A     72  70  94 N2          N/A
KUAOKALA*        N/A     73  66  78 CALM        N/A
HONOULIUULI*   NOT AVBL
MOKUOLOE IS*     N/A    N/A N/A N/A MISG        N/A
PALEHUA*         N/A     81  73  78 CALM        N/A
WAIAWA PHB*    NOT AVBL
$$

HIZ012>013-231600-
MOLOKAI-

CITY           SKY/WX    TMP DP  RH WIND       PRES   REMARKS
MOLOKAI AIRPT  CLEAR     71  71 100 N5        29.99R
KALAUPAPA      NOT AVBL
MAKAPULAPAI*     N/A     79  72  78 E12G21      N/A
MOLOKAI 1*       N/A     63  63 100 NE3         N/A
PUU ALII*        N/A     60  60  99 SE2G9       N/A
$$

HIZ016-231600-
KAHOOLAWE-

CITY           SKY/WX    TMP DP  RH WIND       PRES   REMARKS
KAHOOLAWE*       N/A     72 N/A N/A E10G16      N/A
HAKIOAWA*      NOT AVBL
HONOKANAIA*      N/A     75  69  80 N6G12     29.99S
KANELOA*         N/A     73  70  88 NE10G18   29.21S
KEALIALALO*    NOT AVBL
LUA MAKIKA*    NOT AVBL
$$

HIZ014>015-231600-
LANAI-

CITY           SKY/WX    TMP DP  RH WIND       PRES   REMARKS
LANAI CITY     FAIR      70  70 100 E6        30.04S
LANAI 1*         N/A     70  70 100 NE13G21     N/A
$$

HIZ017>028-231600-
MAUI-

CITY           SKY/WX    TMP DP  RH WIND       PRES   REMARKS
KAHULUI        CLEAR     71  68  90 S5        29.99R
KAPALUA-W MAUI NOT AVBL
HANA AIRPORT   CLOUDY    75  72  88 E7        30.03R
HANA*            N/A     75 N/A N/A S3          N/A
HALEAKALA SUMM   N/A     46  39  76 N17         N/A
MAALAEA BAY*   NOT AVBL
HALEAKALA*     NOT AVBL
KAUPO GAP*       N/A     57  54  88 N6          N/A
KULA 1*          N/A     54  46  75 E3          N/A
$$

HIZ023>026-231600-
BIG ISLAND OF HAWAII COAST AND LOWER SLOPES-

CITY           SKY/WX    TMP DP  RH WIND       PRES   REMARKS
KAILUA KONA    MOCLDY    77  71  82 E3        29.95S
HILO           LGT RAIN  72  71  97 W12       30.00S
HONOKAA*       NOT AVBL
KAWAIHAE MWT*    N/A     77 N/A N/A SE1         N/A
KAWAIHAE*        N/A     79 N/A N/A NE5         N/A
SOUTH POINT*     N/A     72 N/A N/A NE10        N/A
UPOLU AIRPORT*   N/A    N/A N/A N/A NE16G24     N/A
KAMUELA*       PTSUNNY   64  64 100 NE14      30.10R FOG
HAKALAU*         N/A     50  48  93 W1          N/A
KALOKO-HONOKO*   N/A     75  68  78 NE5       29.95
PALI 2*          N/A     64 -11   4 NW3         N/A
KEALAKOMO*       N/A     77  66  69 VRB9G16     N/A
KAUPULEHU*       N/A     72  63  73 S7G13       N/A
KAPAPALA*        N/A     67  66  96 CALM        N/A
LOWER KAHUKU*  NOT AVBL
PUHE CS*       NOT AVBL
PUHO CS*         N/A     75  66  74 NE3         N/A
PTA KEAMUKU*     N/A     59  57  94 S6          N/A
WAIKOLOA*        N/A     72  61  68 E9          N/A
$$

HIZ027>028-231600-
BIG ISLAND OF HAWAII INTERIOR AND SUMMMITS-

CITY           SKY/WX    TMP DP  RH WIND       PRES   REMARKS
BRADSHAW FIELD CLOUDY    51  48  90 CALM      30.33S
MK VISITOR CEN NOT AVBL
MAUNA KEA*       N/A     36  -8  15 E12         N/A  WCI  27
MAUNA LOA*       N/A    N/A N/A N/A MISG        N/A
MAUNA LOA 1*   NOT AVBL
PTA KIPUKA*      N/A     54  52  94 E3          N/A
PTA RANGE 17*    N/A     66  64  94 E7          N/A
PTA WEST*        N/A     57  55  94 SE9         N/A
NENE CABIN*      N/A     50 N/A N/A N5          N/A
AHUMOA*          N/A     51  40  65 E9          N/A
PTA PORTABLE*  NOT AVBL
PUU MALI*      NOT AVBL
$$

HIC003-231600-
NORTHWEST ISLANDS-

CITY           SKY/WX    TMP DP  RH WIND       PRES   REMARKS
MIDWAY ISLAND  CLEAR     81  77  89 S8        29.93S
MIDWAY NOS*    NOT AVBL
FRENCH FRIGATE NOT AVBL
$$

PHZ110>124-180-231600-
BUOY REPORTS

STATION/POSITION TIME  TEMP    WIND        PRES    WAVE   SWELL
                       AIR SEA DIR/SP/G            HT/PER HT/DIR
                 (UTC) (F)     (DEG/KT/KT) (MB)    (FT/S) (FT/D)
BUOY 51001       NOT AVBL
BUOY 51101       NOT AVBL
BUOY 51100       1400   78 80   70/ 12/ 14 1016.1F
BUOY 51003       1500   80 82  110/ 10/ 12 1014.4S   5/ 7   5
BUOY 51004       1450   79 81   70/ 12/ 14 1013.8R   6/11   5/ 20
BARBERS PT BUOY  NOT AVBL
WAIMEA BAY BUOY  1500      82                N/A     3/10   2/340
KAILUA BAY BUOY  1500      82                N/A     5/11   2/ 20
LANAI BUOY       1500      82                N/A     3/14   2/200
BARBERS PT 2     1500      81                N/A     4/14   3/180
PAUWELA MAUI     1500      81                N/A     5/ 8   2/360
HILO             1500      81                N/A     5/11   2/360
KANEOHE BAY BUOY NOT AVBL
HANALEI KAUAI    NOT AVBL
KAHULUI HARBOR   1500   76 81   50/  5/  8 1015.3R
HONOLULU HARBOR  1500   76      CALM  /  1 1015.7R
KILO NALU        NOT AVBL
HILO HARBOR      1500   72     270/  8/  9 1015.4F
MOKUOLOE         1500      82              1015.9
NAWILIWILI       1500      82                N/A
WHOTS BUOY       NOT AVBL
BUOY 51028       NOT AVBL
$$

......................KEY........................................
  SKY/WX - SKY CONDITIONS/PRESENT WEATHER
  TMP    - TEMPERATURE IN FAHRENHEIT
  DWPT   - DEWPOINT IN FAHRENHEIT
  RH     - RELATIVE HUMIDITY IN PERCENT
  WIND   - DIRECTION AND SPEED /MPH FOR ISLANDS...KTS FOR BUOYS/
  PRES   - MEAN SEA LEVEL PRESSURE IN INCHES OF HG
  VSB    - VISIBILITY IN MILES
  HX     - HEAT INDEX
  WCI    - WIND CHILL INDEX
  VRB    - VARIABLE WIND DIRECTION
  N/A    - NOT AVAILABLE



USA.gov is the U.S. government's official web portal to all federal, state and local government web resources and services.